Temp
10 10 10 10 11 11 11 12 12 12 12 12 12 12 13 13 12 12 12 12 12 12 12 12 12 12 12 12 12 12 12 12 12 12 12 12 12 12 12 12 12 12 12
10 10 10 10 10 11 11 12 12 12 12 12 12 12 12 12 12 12 12 12 12 12 12 12 11 11 11 11 11 11 11 11 11 11 11 11 11 11 11 11 11 11 11
10 10 10 10 10 11 11 11 12 12 12 12 12 12 12 12 12 12 12 12 12 12 11 11 11 11 11 10 10 10 10 10 10 10 10 10 10 10 10 10 10 10 10
10 10 10 10 10 11 11 11 11 12 12 12 12 12 12 12 12 12 12 12 12 11 11 11 10 10 10 10 10 10 10 10 10 10 10 10 10 10 10 9 9 9 9
10 10 10 10 10 11 11 11 11 12 12 12 12 12 13 13 12 12 12 11 11 11 10 10 10 9 9 9 9 9 8 8 8 8 8 8 8 9 9 9 9 9 9
10 10 10 10 10 11 11 11 11 11 12 12 12 12 12 12 12 12 11 11 11 10 10 10 10 10 10 9 9 9 8 8 7 7 7 7 7 7 7 7 6 6 7
10 10 10 10 10 10 10 10 10 10 11 12 12 12 12 12 12 11 11 11 11 10 10 10 10 9 9 9 9 8 8 8 8 8 6 7 7 7 7 7 7 6 6
10 10 10 10 10 10 10 10 10 10 11 11 12 12 12 11 12 12 11 11 11 11 10 10 9 9 9 9 8 8 7 7 7 7 7 7 6 6 6 7 7 7 7
10 10 10 10 10 10 10 10 10 10 10 10 11 11 11 11 12 11 11 11 11 10 10 10 10 10 10 9 9 8 8 8 7 7 6 6 5 6 6 6 7 7 7
10 10 10 10 10 10 10 10 10 10 10 10 10 10 10 9 9 10 11 10 11 10 10 9 9 9 8 8 8 8 8 7 7 7 6 6 6 5 5 6 6 6 6
10 10 10 10 10 10 9 10 10 10 10 10 10 10 9 9 8 7 8 9 9 9 9 8 7 7 7 7 7 7 7 7 7 7 6 6 4 4 4 4 5 5 6
10 10 10 10 10 10 10 10 10 10 10 10 9 9 9 8 8 7 7 9 9 10 9 8 7 6 7 6 6 6 6 6 6 6 6 6 6 5 4 3 2 3 4
10 10 10 10 10 10 10 10 10 10 9 9 9 8 8 8 7 6 6 6 6 8 8 8 7 6 6 6 6 6 7 6 6 6 6 5 5 5 5 4 2 1 2
10 10 10 11 10 10 10 10 9 9 9 8 8 8 7 6 6 6 5 4 4 4 7 6 7 6 5 6 6 6 6 6 5 5 5 5 5 5 5 4 3 0 1
10 10 10 10 10 9 9 9 9 8 8 8 7 7 6 6 5 5 4 3 2 0 3 5 5 6 6 6 6 6 6 6 5 5 4 4 4 3 3 3 2 -1 -0
10 9 9 8 8 9 8 8 8 8 7 7 6 6 6 5 5 4 4 3 2 0 -2 2 4 4 5 5 5 5 5 5 6 5 5 4 4 3 3 2 1 0 0
9 9 8 8 7 7 7 8 7 7 7 6 6 5 5 4 4 4 3 2 2 0 -1 1 2 3 3 3 3 2 2 2 2 2 1 1 1 1 2 2 1 1 1
8 8 6 7 6 7 7 7 6 7 6 5 5 5 4 4 3 2 2 2 1 1 -0 -0 2 2 2 2 1 -0 -1 -2 -4 -3 -3 -3 -2 -2 -1 -0 0 -1 0
7 5 5 6 6 6 6 6 6 6 5 5 4 4 3 2 2 2 2 1 1 1 1 -0 1 1 0 1 0 -0 -2 -3 -3 -3 -3 -3 -3 -3 -2 -2 0 1 1
5 5 5 5 5 6 5 5 5 5 4 4 3 3 2 2 2 1 1 1 1 0 0 0 -0 -0 -0 0 -1 -2 -3 -4 -4 -4 -3 -3 -3 -2 -2 -1 0 0 -0
4 4 5 5 5 4 5 5 4 4 4 3 2 2 2 1 0 0 -0 0 -0 -1 -0 -1 -2 -1 -1 -1 -4 -5 -4 -4 -4 -4 -3 -3 -2 -2 -2 -1 -0 -1 -0
4 4 5 4 4 4 4 4 3 3 3 2 2 1 1 1 0 0 -0 -1 -1 -1 -2 -3 -4 -5 -4 -6 -5 -5 -5 -4 -4 -4 -4 -3 -2 -2 -2 -2 -1 -1 0
4 4 3 3 4 3 3 3 2 2 2 1 1 1 1 0 -0 -0 -0 -1 -1 -1 -2 -4 -5 -6 -7 -6 -6 -6 -5 -4 -4 -3 -4 -3 -3 -3 -2 -1 -1 -1 -1
3 3 3 3 2 2 2 2 2 1 1 0 0 -0 -0 -0 -0 -1 -1 -1 -1 -1 -2 -3 -5 -6 -6 -6 -6 -5 -5 -4 -4 -4 -4 -4 -3 -3 -2 -1 -1 -1 -1
2 2 2 2 2 1 1 1 1 0 -0 -0 -0 -1 -1 -1 -1 -1 -2 -2 -3 -3 -4 -5 -7 -6 -6 -6 -6 -5 -4 -5 -4 -3 -4 -3 -3 -3 -3 -3 -2 -2 -2
1 1 1 1 1 0 0 0 -0 -1 -1 -1 -1 -1 -2 -2 -2 -2 -3 -5 -5 -5 -7 -7 -6 -7 -7 -6 -5 -5 -5 -5 -5 -5 -5 -4 -4 -3 -3 -4 -3 -3 -3
Height
1573 1573 1574 1574 1574 1574 1574 1574 1574 1573 1573 1573 1573 1573 1572 1572 1571 1571 1571 1570 1570 1569 1568 1567 1567 1566 1565 1564 1563 1561 1560 1559 1558 1557 1556 1554 1552 1550 1548 1546 1544 1541 1539
1574 1574 1574 1575 1575 1574 1574 1574 1574 1574 1574 1573 1573 1572 1572 1571 1571 1570 1570 1569 1569 1569 1568 1567 1567 1565 1564 1563 1562 1560 1559 1557 1556 1555 1553 1551 1549 1547 1544 1542 1540 1538 1535
1574 1575 1575 1575 1575 1575 1574 1574 1574 1574 1573 1573 1573 1572 1572 1571 1571 1570 1570 1570 1569 1569 1568 1567 1566 1565 1563 1562 1560 1559 1557 1555 1553 1552 1550 1548 1545 1543 1541 1539 1537 1535 1532
1574 1575 1576 1575 1575 1575 1575 1574 1574 1573 1573 1573 1573 1572 1571 1571 1570 1570 1570 1569 1569 1568 1567 1566 1565 1563 1562 1560 1558 1556 1555 1553 1551 1549 1547 1545 1542 1540 1537 1535 1532 1530 1528
1575 1576 1576 1576 1576 1575 1575 1574 1574 1573 1573 1572 1572 1571 1570 1570 1569 1569 1569 1569 1568 1567 1566 1564 1563 1561 1559 1557 1555 1553 1551 1550 1547 1545 1543 1540 1538 1535 1533 1530 1528 1525 1523
1574 1575 1575 1576 1576 1575 1575 1574 1573 1573 1572 1571 1571 1570 1569 1569 1568 1569 1569 1569 1567 1566 1565 1563 1562 1561 1558 1556 1553 1550 1548 1545 1543 1542 1539 1537 1534 1531 1528 1525 1523 1520 1517
1573 1574 1575 1575 1575 1574 1574 1573 1573 1572 1571 1570 1570 1569 1569 1568 1568 1569 1568 1567 1566 1566 1564 1563 1560 1558 1555 1553 1550 1547 1544 1542 1539 1536 1534 1532 1529 1527 1524 1521 1518 1515 1512
1573 1573 1574 1575 1574 1573 1573 1572 1571 1571 1570 1569 1568 1568 1569 1570 1569 1568 1567 1566 1565 1565 1563 1561 1557 1555 1552 1548 1545 1542 1539 1536 1533 1531 1528 1525 1523 1521 1518 1515 1512 1509 1506
1571 1572 1573 1574 1573 1572 1572 1571 1570 1570 1569 1569 1569 1569 1568 1568 1567 1566 1566 1565 1564 1563 1560 1557 1554 1551 1547 1544 1540 1537 1533 1530 1527 1524 1521 1518 1516 1515 1512 1509 1505 1502 1499
1569 1571 1572 1572 1572 1572 1571 1570 1569 1569 1569 1569 1568 1568 1568 1568 1567 1564 1563 1563 1562 1560 1557 1554 1552 1548 1545 1541 1537 1534 1530 1526 1522 1518 1515 1512 1509 1506 1504 1501 1498 1495 1492
1568 1570 1571 1571 1571 1571 1571 1570 1570 1569 1569 1569 1568 1568 1567 1566 1566 1564 1558 1556 1554 1553 1551 1548 1546 1543 1540 1537 1533 1530 1525 1521 1517 1513 1509 1505 1502 1499 1497 1495 1492 1487 1483
1566 1568 1569 1570 1571 1570 1570 1570 1570 1569 1568 1568 1567 1566 1565 1565 1564 1563 1558 1554 1550 1547 1545 1542 1541 1538 1535 1532 1528 1524 1520 1516 1512 1508 1503 1499 1494 1490 1486 1483 1480 1476 1474
1564 1566 1567 1569 1570 1570 1569 1569 1569 1568 1568 1568 1567 1566 1564 1563 1561 1560 1558 1555 1551 1544 1542 1540 1538 1534 1531 1527 1523 1518 1514 1510 1505 1501 1496 1492 1487 1482 1477 1473 1469 1467 1462
1562 1563 1565 1566 1567 1567 1567 1567 1567 1567 1567 1566 1565 1564 1563 1562 1560 1558 1555 1553 1547 1544 1541 1538 1535 1531 1527 1522 1517 1513 1509 1504 1500 1494 1490 1486 1480 1474 1469 1464 1460 1457 1453
1558 1560 1562 1563 1564 1564 1564 1565 1565 1565 1565 1565 1564 1563 1561 1559 1557 1555 1552 1549 1547 1543 1537 1534 1531 1528 1523 1517 1512 1506 1501 1497 1493 1488 1482 1477 1472 1467 1463 1457 1451 1447 1444
1555 1557 1558 1560 1561 1561 1562 1563 1563 1563 1563 1563 1562 1560 1559 1557 1555 1553 1550 1548 1544 1541 1535 1532 1529 1523 1518 1514 1509 1504 1498 1492 1488 1482 1477 1471 1466 1460 1454 1449 1444 1440 1436
1551 1553 1555 1557 1559 1560 1561 1561 1561 1560 1561 1560 1560 1559 1557 1556 1554 1551 1548 1545 1542 1537 1531 1525 1521 1518 1513 1506 1501 1497 1491 1485 1479 1475 1468 1463 1457 1452 1446 1441 1437 1432 1429
1546 1548 1552 1553 1558 1558 1559 1559 1560 1558 1558 1558 1557 1556 1554 1553 1550 1548 1544 1541 1538 1534 1528 1518 1515 1511 1506 1501 1495 1489 1483 1478 1474 1469 1465 1458 1451 1444 1439 1434 1430 1425 1421
1540 1544 1549 1550 1554 1556 1557 1557 1557 1556 1556 1555 1555 1553 1551 1549 1546 1543 1540 1538 1534 1529 1525 1517 1508 1505 1499 1495 1487 1483 1478 1472 1468 1464 1459 1452 1444 1438 1431 1423 1419 1418 1415
1539 1542 1546 1548 1551 1552 1553 1553 1554 1554 1554 1552 1551 1549 1547 1544 1541 1538 1535 1532 1527 1522 1518 1511 1504 1498 1494 1489 1484 1475 1467 1467 1460 1456 1450 1445 1439 1430 1422 1417 1413 1411 1409
1536 1540 1544 1547 1548 1549 1549 1550 1550 1550 1550 1549 1548 1546 1543 1540 1537 1534 1529 1526 1523 1518 1513 1507 1500 1494 1489 1484 1479 1475 1468 1460 1456 1452 1444 1439 1431 1424 1418 1413 1411 1409 1407
1534 1538 1542 1544 1546 1547 1548 1547 1547 1546 1546 1545 1544 1543 1540 1537 1534 1531 1527 1522 1518 1512 1508 1503 1497 1492 1487 1483 1477 1472 1467 1459 1449 1449 1440 1430 1428 1421 1416 1411 1409 1408 1405
1533 1537 1539 1542 1543 1545 1545 1545 1544 1543 1542 1541 1539 1537 1535 1533 1528 1525 1521 1517 1513 1509 1505 1500 1493 1489 1482 1480 1474 1467 1463 1459 1451 1443 1439 1429 1426 1420 1414 1408 1405 1406 1405
1532 1536 1538 1540 1541 1541 1541 1541 1541 1539 1538 1536 1534 1531 1529 1527 1524 1519 1514 1510 1506 1502 1498 1493 1488 1483 1480 1475 1472 1465 1459 1452 1446 1441 1437 1431 1426 1421 1414 1409 1407 1406 1407
1531 1534 1535 1537 1537 1538 1538 1537 1537 1536 1534 1532 1530 1527 1524 1520 1517 1514 1508 1502 1498 1494 1490 1486 1484 1481 1476 1471 1467 1461 1454 1448 1439 1437 1435 1430 1426 1423 1418 1414 1411 1410 1410
1529 1532 1534 1535 1535 1535 1535 1533 1532 1531 1529 1526 1524 1523 1520 1516 1512 1509 1502 1497 1491 1487 1483 1479 1475 1471 1468 1462 1458 1456 1450 1445 1440 1435 1434 1431 1427 1424 1422 1419 1417 1415 1414
Wind_Speed
7 5 3 3 2 3 3 3 3 3 3 4 5 5 5 6 7 8 8 8 8 8 9 10 11 12 13 13 13 12 12 11 12 13 14 14 15 16 17 17 18 18 18
3 4 2 1 1 2 3 3 3 3 3 3 4 4 5 6 6 7 6 7 8 9 10 11 11 12 13 13 13 14 14 14 15 16 17 18 19 19 19 19 20 21 21
6 4 2 3 3 2 3 3 4 4 4 4 5 5 5 6 7 7 8 8 8 9 9 10 11 12 14 15 15 16 17 18 18 19 19 20 20 21 21 22 22 22 23
6 6 4 5 3 2 3 3 4 4 5 5 6 6 7 7 6 5 5 6 6 7 8 9 10 12 13 14 15 16 17 18 19 20 22 23 23 24 23 24 24 24 24
7 7 7 6 4 4 4 4 4 5 6 6 6 6 6 5 4 2 2 3 5 5 7 7 7 10 12 12 12 13 16 17 18 20 21 23 24 25 26 26 26 26 26
8 9 6 4 5 6 5 5 6 6 6 6 5 5 2 1 1 1 1 6 5 5 9 8 11 17 18 17 17 17 17 17 18 20 22 23 25 26 27 28 28 27 26
8 6 7 6 6 6 6 7 7 7 8 7 4 1 0 1 4 1 7 7 7 10 10 15 20 23 21 22 23 24 25 24 24 23 22 23 26 28 29 30 31 32 30
11 8 8 8 7 7 7 7 7 7 7 6 5 3 1 2 2 10 1 11 10 10 15 22 21 21 22 23 24 26 27 27 27 28 29 29 27 29 30 30 32 32 31
12 10 9 6 5 6 6 7 7 4 4 4 5 5 3 1 12 5 11 6 15 17 21 21 21 22 21 21 22 24 25 28 30 31 32 32 30 28 30 32 34 35 34
15 11 9 5 3 4 6 6 5 3 2 3 4 6 6 7 5 9 8 18 17 23 23 23 24 23 22 23 23 23 25 26 28 29 32 34 35 33 32 33 34 36 37
15 12 10 6 4 5 7 7 5 4 4 3 4 5 5 7 8 11 21 24 29 26 26 29 27 25 23 21 24 23 24 26 28 30 31 32 31 32 33 34 35 37 36
16 15 12 8 6 8 9 7 5 4 4 5 6 7 8 8 10 13 22 29 31 34 32 30 26 25 23 25 25 27 27 28 28 29 31 33 34 36 37 36 35 37 36
19 17 13 10 7 10 9 7 6 5 5 6 7 8 10 11 13 15 18 24 30 35 35 32 30 29 28 29 29 30 30 30 30 32 31 32 34 36 38 39 39 38 38
19 18 15 11 11 8 10 8 7 6 6 7 8 10 11 13 14 16 18 20 25 27 33 33 32 31 32 31 31 31 32 31 31 32 33 35 38 38 37 38 40 39 39
22 20 18 15 13 11 9 9 8 7 7 8 9 10 12 13 15 16 17 19 20 18 29 33 34 32 33 36 37 38 37 35 33 33 34 34 34 32 35 39 40 37 36
25 22 19 16 13 12 11 8 8 7 8 9 10 11 13 14 15 16 18 19 21 21 19 31 33 35 34 35 37 38 38 39 36 36 35 34 33 34 36 35 36 32 35
27 24 20 18 14 11 11 9 8 7 8 9 11 13 14 15 16 17 18 20 22 23 28 36 36 37 39 39 41 41 43 41 40 38 37 38 34 35 33 31 32 34 35
29 24 18 15 13 12 10 8 8 8 9 10 12 14 15 16 17 18 20 21 23 25 30 37 38 40 40 39 41 42 41 40 40 32 36 37 40 36 32 30 30 30 26
28 20 18 14 15 14 10 8 8 9 11 12 14 15 16 17 18 20 22 24 26 28 31 36 41 40 41 41 43 43 42 43 37 42 42 42 35 38 34 34 31 23 26
21 19 16 17 15 11 9 8 9 10 12 14 15 17 18 20 22 24 25 26 28 30 33 36 39 42 41 40 40 44 46 39 45 42 40 38 42 36 28 26 21 18 20
18 16 18 15 12 9 8 8 9 11 13 15 17 18 19 21 22 23 26 28 30 32 34 36 39 41 41 41 38 38 41 43 44 39 43 46 40 33 25 18 12 14 16
19 18 17 12 9 8 7 8 10 12 14 16 18 19 20 21 22 24 26 27 28 30 33 34 36 37 38 36 37 36 41 41 45 45 48 47 40 32 26 19 15 10 2
20 17 13 11 8 6 7 9 11 13 15 18 20 21 21 22 24 26 27 28 29 30 30 31 33 32 36 34 38 40 40 41 39 50 40 42 36 30 23 11 4 3 6
17 14 11 8 6 7 9 12 13 15 17 18 20 21 23 25 25 27 30 32 33 33 32 30 29 31 33 38 33 34 39 41 44 41 31 35 31 18 9 12 13 10 5
16 13 10 7 6 8 11 14 16 17 18 19 19 21 23 24 25 27 29 32 35 35 33 29 28 31 33 32 31 32 34 35 40 35 28 22 19 11 5 7 6 9 11
14 11 7 6 7 9 12 16 18 18 19 20 20 21 22 24 26 26 27 29 34 35 33 33 33 33 33 30 28 23 26 30 29 29 20 22 22 12 5 5 7 8 14
Wind_Direction
149 152 119 130 50 41 27 15 357 344 331 332 342 330 325 327 325 330 336 337 341 349 353 353 353 351 347 342 338 334 327 318 313 313 316 317 318 321 323 325 325 324 324
144 160 202 213 316 329 325 343 339 343 343 337 331 331 325 325 325 327 329 334 340 346 352 353 350 346 340 336 331 325 320 315 312 311 313 317 319 318 316 316 316 317 319
158 172 224 286 266 270 313 316 321 330 331 326 324 320 316 316 319 321 333 344 350 350 350 348 346 346 345 342 335 329 324 318 315 312 310 309 309 309 308 309 310 311 312
193 185 218 277 303 260 316 323 323 319 321 326 326 320 315 316 320 328 334 347 351 352 352 350 351 353 347 342 338 333 327 321 315 312 311 310 307 305 304 305 305 305 306
200 213 214 257 301 330 331 322 323 325 327 331 335 323 322 314 310 322 24 37 357 354 349 342 338 333 327 324 325 328 328 325 321 317 314 312 309 306 303 301 299 299 300
191 206 233 252 285 313 311 310 314 321 324 327 333 316 326 69 289 107 95 344 330 317 323 318 316 320 317 311 307 304 305 304 308 311 311 309 306 303 302 301 298 296 295
217 221 242 272 288 300 302 302 307 312 318 327 345 321 103 108 150 130 297 291 295 310 313 312 311 312 308 305 303 299 299 296 294 292 292 296 299 299 297 295 297 294 292
209 245 249 261 283 299 303 302 308 310 309 331 3 66 110 179 183 319 167 308 296 309 309 313 313 315 313 308 302 299 298 295 293 292 291 289 291 295 296 296 290 289 287
218 239 244 258 285 306 308 306 303 301 312 343 8 26 5 337 322 247 310 297 315 316 319 322 322 324 322 316 311 307 303 299 295 291 290 289 293 290 295 294 295 293 287
222 234 236 235 276 315 316 316 311 308 310 329 340 349 347 327 323 316 318 306 316 328 327 327 332 331 327 321 316 314 309 307 305 300 294 291 290 294 293 292 294 294 292
226 229 224 233 265 304 316 311 298 302 312 327 341 343 340 332 320 312 314 319 324 332 333 333 339 339 333 331 324 319 314 312 309 306 304 301 303 301 298 293 292 289 290
225 220 218 233 278 301 305 294 290 291 300 312 324 330 331 327 319 319 316 322 324 326 328 334 339 339 332 329 326 321 318 315 312 311 307 303 301 299 297 296 293 290 290
217 215 221 233 270 298 298 280 272 278 296 315 322 324 323 323 321 318 315 316 319 322 326 330 334 331 332 329 327 324 323 320 317 318 315 312 310 305 299 294 293 294 290
218 218 224 242 251 270 279 264 267 282 298 310 316 321 322 320 318 317 315 315 318 319 319 326 328 331 331 327 324 322 320 319 317 317 314 311 310 307 304 299 294 294 294
219 224 229 235 241 241 242 251 262 280 294 305 313 315 315 316 319 318 316 316 317 315 314 322 324 327 325 326 326 326 324 322 321 318 317 315 311 309 306 304 302 301 296
220 224 227 229 229 233 231 238 255 272 288 300 306 311 314 315 315 314 314 314 314 313 302 316 321 324 325 323 323 323 322 320 317 315 314 314 309 305 302 300 303 301 297
222 223 224 231 226 228 227 239 252 271 287 300 309 312 313 315 314 312 312 312 315 316 314 315 320 324 325 328 328 329 327 323 321 320 320 319 320 312 307 297 295 293 297
212 220 219 217 222 219 235 235 258 276 291 302 307 312 313 314 313 313 313 314 314 314 315 315 320 323 325 330 329 329 330 328 332 324 322 319 318 311 309 296 293 297 296
208 204 205 206 215 223 226 243 264 286 297 307 312 313 313 313 312 312 314 316 314 313 314 314 317 322 326 330 329 328 329 329 333 327 325 326 321 319 306 300 289 289 293
202 195 201 204 208 217 225 255 279 295 306 309 309 312 314 314 315 316 316 315 315 316 318 318 318 321 324 328 327 329 329 328 328 331 326 331 326 322 316 316 294 279 286
193 189 196 200 210 215 242 266 289 299 302 306 308 310 311 312 313 312 313 317 318 319 319 318 317 318 322 326 327 326 323 319 323 325 327 326 328 326 325 328 326 308 301
183 186 197 199 208 233 255 277 290 299 305 308 307 307 309 310 311 312 313 313 313 316 314 314 314 313 315 319 319 319 320 318 317 322 325 322 329 322 322 303 303 308 296
186 188 190 201 219 244 271 287 299 303 305 306 308 312 313 313 313 313 314 314 312 312 311 312 310 309 310 313 318 320 319 315 309 314 324 321 331 328 325 340 283 212 217
181 186 193 202 224 256 280 292 300 304 307 308 311 314 314 316 316 317 315 314 312 312 314 313 307 307 309 312 314 310 309 307 308 316 324 318 325 323 67 100 108 123 154
180 185 192 210 245 276 289 301 304 305 306 309 313 314 314 315 316 316 313 315 316 316 317 318 314 311 308 311 313 311 308 309 310 318 329 323 319 295 16 52 75 70 80
179 184 200 234 268 289 301 303 305 308 308 310 314 316 316 315 317 318 318 319 318 319 322 318 313 311 316 314 321 313 312 310 308 312 317 321 314 274 296 12 41 65 115